TimeMDT,TemperatureF,Dew PointF,Humidity,Sea Level PressureIn,VisibilityMPH,Wind Direction,Wind SpeedMPH,Gust SpeedMPH,PrecipitationIn,Events,Conditions,WindDirDegrees,DateUTC
12:53 AM,44.1,26.1,49,29.99,10.0,WNW,17.3,-,N/A,,Mostly Cloudy,300,2014-03-11 06:53:00
1:53 AM,44.1,28.0,53,30.00,10.0,WNW,13.8,-,N/A,,Mostly Cloudy,290,2014-03-11 07:53:00
2:53 AM,43.0,26.1,51,30.01,10.0,West,18.4,-,N/A,,Mostly Cloudy,280,2014-03-11 08:53:00
3:53 AM,43.0,26.1,51,30.01,10.0,WNW,16.1,27.6,N/A,,Overcast,290,2014-03-11 09:53:00
4:53 AM,42.1,27.0,55,30.02,10.0,WNW,13.8,23.0,0.00,Rain,Light Rain,300,2014-03-11 10:53:00
5:53 AM,39.9,32.0,73,30.06,10.0,NW,18.4,-,0.00,Rain,Light Rain,320,2014-03-11 11:53:00
6:04 AM,37.0,34.0,89,30.11,5.0,WNW,12.7,-,0.01,Snow,Light Snow,300,2014-03-11 12:04:00
6:32 AM,39.0,34.0,82,30.12,10.0,NW,15.0,20.7,0.01,,Overcast,310,2014-03-11 12:32:00
6:51 AM,37.4,33.8,87,30.13,2.0,North,12.7,-,0.02,Snow,Light Snow,360,2014-03-11 12:51:00
6:53 AM,37.0,34.0,89,30.10,2.0,North,10.4,20.7,0.02,Snow,Light Snow,350,2014-03-11 12:53:00
7:03 AM,36.0,35.1,97,30.13,2.0,North,8.1,-,0.01,Snow,Light Snow,360,2014-03-11 13:03:00
7:11 AM,36.0,35.1,97,30.13,2.0,North,6.9,-,0.02,Snow,Light Snow,350,2014-03-11 13:11:00
7:16 AM,37.0,35.1,93,30.14,5.0,North,6.9,-,0.02,Snow,Light Snow,350,2014-03-11 13:16:00
7:18 AM,37.0,35.1,93,30.14,5.0,North,6.9,-,0.02,Snow,Light Snow,350,2014-03-11 13:18:00
7:25 AM,37.0,35.1,93,30.14,7.0,North,6.9,-,0.02,Snow,Light Snow,350,2014-03-11 13:25:00
7:53 AM,37.0,35.1,93,30.13,10.0,North,6.9,-,0.02,Snow,Light Snow,350,2014-03-11 13:53:00
8:53 AM,39.9,34.0,79,30.16,10.0,WNW,8.1,-,0.00,,Mostly Cloudy,290,2014-03-11 14:53:00
9:53 AM,41.0,33.1,73,30.19,10.0,North,9.2,-,N/A,,Mostly Cloudy,360,2014-03-11 15:53:00
10:53 AM,43.0,34.0,71,30.23,10.0,North,10.4,-,N/A,,Mostly Cloudy,350,2014-03-11 16:53:00
11:53 AM,44.1,32.0,63,30.23,10.0,North,11.5,-,N/A,,Mostly Cloudy,360,2014-03-11 17:53:00
12:53 PM,46.0,27.0,47,30.23,10.0,NNW,15.0,23.0,N/A,,Mostly Cloudy,340,2014-03-11 18:53:00
1:53 PM,46.0,28.9,51,30.24,10.0,North,15.0,-,0.00,Rain,Light Rain,10,2014-03-11 19:53:00
2:53 PM,45.0,28.0,52,30.25,10.0,NNW,10.4,-,0.00,,Mostly Cloudy,330,2014-03-11 20:53:00
3:53 PM,46.9,28.0,48,30.24,10.0,NNE,13.8,18.4,0.00,,Mostly Cloudy,20,2014-03-11 21:53:00
4:53 PM,48.0,30.9,52,30.24,10.0,WNW,6.9,-,0.00,,Scattered Clouds,290,2014-03-11 22:53:00
5:53 PM,48.0,27.0,44,30.24,10.0,North,6.9,-,N/A,,Mostly Cloudy,350,2014-03-11 23:53:00
6:53 PM,48.9,27.0,43,30.25,10.0,NW,12.7,-,N/A,,Partly Cloudy,320,2014-03-12 00:53:00
7:53 PM,46.0,30.0,54,30.27,10.0,WNW,5.8,-,N/A,,Partly Cloudy,290,2014-03-12 01:53:00
8:53 PM,44.1,30.9,60,30.30,10.0,WSW,4.6,-,N/A,,Partly Cloudy,240,2014-03-12 02:53:00
9:53 PM,42.1,30.9,65,30.31,10.0,SSE,4.6,-,N/A,,Partly Cloudy,160,2014-03-12 03:53:00
10:53 PM,39.0,30.9,73,30.31,10.0,South,6.9,-,N/A,,Clear,170,2014-03-12 04:53:00
11:53 PM,39.0,28.0,65,30.33,10.0,WNW,4.6,-,N/A,,Clear,290,2014-03-12 05:53:00